This is the latest recevied weather packets stored in our database for station/object DB0LHR-6. If no packets are shown the sender has not sent any weather packets the latest 10 day(s).
| Time | Temp. | Humidity | Pressure | Rain* | Wind** | Luminosity | Snow |
|---|---|---|---|---|---|---|---|
| 1778424616 | 21.11° C | 43% | 1008 hPa | 0 mm | - | - | - |
| 1778423717 | 21.67° C | 44% | 1008 hPa | 0 mm | - | - | - |
| 1778422816 | 21.67° C | 44% | 1008 hPa | 0 mm | - | - | - |
| 1778421916 | 21.67° C | 45% | 1008 hPa | 0 mm | - | - | - |
| 1778421016 | 21.67° C | 44% | 1008 hPa | 0 mm | - | - | - |
| 1778420116 | 21.67° C | 44% | 1008 hPa | 0 mm | - | - | - |
| 1778419216 | 22.22° C | 42% | 1009 hPa | 0 mm | - | - | - |
| 1778418316 | 22.22° C | 42% | 1009 hPa | 0 mm | - | - | - |
| 1778417416 | 22.78° C | 42% | 1009 hPa | 0 mm | - | - | - |
| 1778416516 | 22.78° C | 42% | 1009 hPa | 0 mm | - | - | - |
| 1778415616 | 22.78° C | 44% | 1009 hPa | 0 mm | - | - | - |
| 1778414716 | 23.33° C | 42% | 1009 hPa | 0 mm | - | - | - |
| 1778413816 | 23.33° C | 40% | 1009 hPa | 0 mm | - | - | - |
| 1778412916 | 23.33° C | 39% | 1009 hPa | 0 mm | - | - | - |
| 1778412016 | 23.33° C | 41% | 1009 hPa | 0 mm | - | - | - |
| 1778411116 | 23.33° C | 42% | 1009 hPa | 0 mm | - | - | - |
| 1778410218 | 23.33° C | 43% | 1009 hPa | 0 mm | - | - | - |
| 1778409316 | 22.22° C | 41% | 1010 hPa | 0 mm | - | - | - |
| 1778408416 | 21.67° C | 43% | 1010 hPa | 0 mm | - | - | - |
| 1778407516 | 21.67° C | 43% | 1010 hPa | 0 mm | - | - | - |
| 1778406616 | 21.67° C | 44% | 1010 hPa | 0 mm | - | - | - |
| 1778405716 | 20.56° C | 47% | 1010 hPa | 0 mm | - | - | - |
| 1778404816 | 20° C | 49% | 1010 hPa | 0 mm | - | - | - |
| 1778403916 | 19.44° C | 55% | 1010 hPa | 0 mm | - | - | - |
| 1778403016 | 18.89° C | 58% | 1010 hPa | 0 mm | - | - | - |
* Rain latest 24 hours (hover to see other rain measurements)
** Current wind speed in m/s (hover to see current wind gust speed)